Погода в Хомутинине

Россия / Челябинская область     54°32′37″N   61°26′24″E
темп.,
°C
ветер,
м/с
пор.,
м/с
влажн.,
%
обл.,
%
осадки,
мм/ч
давл.,
гПа
погр.,
м
19 января, вт
вт1923:00−22юз238645 0.0 102320
02:00−20ююз2285100 0.0 102220
05:00−20ююв2386100 0.0 102223
08:00−19ююв2288100 0.0 102223
11:00−17вюв2487100 0.0 1022178
14:00−16вюв3489100 0.0 1021246
17:00−16в3593100 0.1 1020254
20:00−16в4892100 0.0 1019293
20 января, ср
ср2023:00−15в4895100 0.4 1018345
02:00−15в3796100 2.3 1015353
05:00−14в2596100 4.9 1014366
08:00−14св2397100 1.8 1012134
11:00−14сз1195100 2.7 1012146
14:00−13з469299 0.2 1012499
17:00−16зюз469388 0.2 101287
20:00−17зюз349198 0.0 101451
21 января, чт
чт2123:00−19зюз349082 0.0 101538
02:00−22зюз44880 0.0 101665
05:00−24з34882 0.0 101653
08:00−23з358757 0.0 101668
11:00−18з489378 0.0 1016451
14:00−17з478894 0.1 1016494
17:00−18зюз349092 0.1 101640
20:00−19з338996 0.0 101735
22 января, пт
пт2223:00−19з338798 0.0 101728
02:00−20з338715 0.0 101720
05:00−18зюз338646 0.0 101633
08:00−18юз339487 0.1 101563
11:00−13ююз479594 0.9 1013271
14:00−11юз61094100 1.6 1010652
17:00−11ссз81291100 2.9 1011778
20:00−17сз488797 0.1 1014134
23 января, сб
сб2323:00−20сз349192 0.1 101748
02:00−21с239986 0.0 102022
05:00−27ссв349993 0.0 102473
08:00−29св349899 0.0 102859
11:00−28всв229898 0.0 1030103
14:00−25вюв3396100 0.0 1029227
17:00−25вюв3598100 0.6 1028228
20:00−24вюв4699100 1.3 1027230